Tracking 28790 objects as of 19-Apr-2024
HD Live streaming from Space Station
objects crossing your sky now

FENGYUN 1C DEB

Track FENGYUN 1C DEB now!
10-day predictions


NORAD ID: 30680
Int'l Code: 1999-025AQN
Perigee: 823.9 km
Apogee: 1,345.1 km
Inclination: 99.6 °
Period: 106.8 minutes
Semi major axis: 7455 km
RCS: 0.0144 m2 (small)
Launch date: May 10, 1999
Source: People's Republic of China (PRC)
Launch site: Taiyaun Space Center, China (TSC)

Note: This is SATELLITE DEBRIS
Your satellite tracking list
Your tracking list is empty




NASA's NSSDC Master Catalog

Two Line Element Set (TLE):
1 30680U 99025AQN 24109.39269645  .00006629  00000-0  73554-2 0  9991
2 30680  99.5728 163.7472 0349564 239.1126 117.5199 13.48613246840962
Source of the keplerian elements: AFSPC